[Iaude] MPEC B46: 2024 BX [a=1.02,e=0.15,i=2.9,H=25.0]
    mpec at marsden.cfa.harvard.edu 
    mpec at marsden.cfa.harvard.edu
       
    Fri Jan 19 09:29:09 EST 2024
    
    
  
M.P.E.C. 2024-B46                              Issued 2024 January 19, 14:27 UT
     The Minor Planet Electronic Circulars contain information on unusual
         minor planets, routine data on comets and natural satellites,
         and occasional editorial announcements.  They are published
    on behalf of Division F of the International Astronomical Union by the
          Minor Planet Center, Smithsonian Astrophysical Observatory,
                          Cambridge, MA 02138, U.S.A.
			  
             Prepared using the Tamkin Foundation Computer Network
                              MPC at CFA.HARVARD.EDU
            URL https://www.minorplanetcenter.net/    ISSN 1523-6714
                                    2024 BX                                     
Observations:
     K24B00X* C2024 01 16.42523511 17 42.983+41 43 12.00         21.65GVEB046V00
     K24B00X  C2024 01 16.43074111 17 40.934+41 43 18.08         21.53GVEB046V00
     K24B00X  C2024 01 16.43624411 17 38.846+41 43 24.13         21.56GVEB046V00
     K24B00X KC2024 01 16.51531 11 17 09.05 +41 44 44.2                VEB046291
     K24B00X KC2024 01 16.51853611 17 07.757+41 44 46.28         21.58GVEB046V06
     K24B00X KC2024 01 16.51888 11 17 07.70 +41 44 47.6                VEB046291
     K24B00X KC2024 01 16.52157811 17 06.670+41 44 48.77         21.34GVEB046V06
     K24B00X KC2024 01 16.52245 11 17 06.37 +41 44 50.5                VEB046291
     K24B00X KC2024 01 16.52461611 17 05.492+41 44 51.11         22.28GVEB046V06
     K24B00X 1C2024 01 17.06322 11 14 09.40 +41 53 29.3          21.4 VXEB046033
     K24B00X 1C2024 01 17.06675 11 14 08.17 +41 53 33.0          21.1 VXEB046033
     K24B00X 1C2024 01 17.07028 11 14 06.81 +41 53 36.5          21.4 VXEB046033
     K24B00X 1C2024 01 17.07391 11 14 05.61 +41 53 40.7          21.3 VXEB046033
     K24B00X KC2024 01 17.31157911 12 49.277+41 57 43.63         21.68GVEB046V06
     K24B00X KC2024 01 17.31626511 12 47.563+41 57 49.28         21.81GVEB046V06
     K24B00X KC2024 01 17.32095211 12 45.824+41 57 55.26         21.62GVEB046V06
     K24B00X KC2024 01 17.32564211 12 44.118+41 58 00.77         21.68GVEB046V06
     K24B00X  C2024 01 17.45534911 11 54.519+42 00 17.83         21.3 GVEB046H01
     K24B00X  C2024 01 17.46396111 11 51.222+42 00 25.71         21.2 GVEB046H01
     K24B00X  C2024 01 17.47041111 11 48.760+42 00 31.38         21.2 GVEB046H01
     K24B00X  C2024 01 17.47604011 11 46.608+42 00 36.43         22.0 GVEB046H01
     K24B00X 1C2024 01 19.08257 11 02 36.12 +42 23 28.5          21.0 VXEB046033
     K24B00X 1C2024 01 19.08610 11 02 34.79 +42 23 31.6          20.9 VXEB046033
     K24B00X 1C2024 01 19.08964 11 02 33.46 +42 23 33.9          21.0 VXEB046033
Observer details:
033 Karl Schwarzschild Observatory, Tautenburg.  Observers S. Melnikov, C.
    Hogner, F. Ludwig, M. Hartmann, B. Stecklum.  Measurer B. Stecklum.
    1.34-m f/3 Schmidt + CCD.
291 LPL/Spacewatch II.  Observer T. H. Bressi.  1.8-m f/2.7 reflector + CCD.
H01 Magdalena Ridge Observatory, Socorro.  Observers W. H. Ryan, E. V. Ryan.
    Measurer W. H. Ryan.  2.4-m f/8.9 Ritchey-Chretien + CCD.
V00 Kitt Peak-Bok.  Observer R. A. Mastaler.  Measurers M. J. Brucker, C. E.
    Woodward, D. Fay, J. B. Fazekas, D. C. Fuls, A. R. Gibbs, H. Groeller, J.
    K. Hogan, R. A. Kowalski, S. M. Larson, C. Lejoly, G. J. Leonard, R. A.
    Mastaler, R. S. McMillan, D. Rankin, R. L. Seaman, A. Serrano, F. C.
    Shelly, K. W. Wierzchos.  2.25-m reflector + 4x4K mosaic CCD.
V06 Catalina Sky Survey-Kuiper.  Observer G. J. Leonard.  Measurers T. Beuden,
    V. F. Carvajal, D. Fay, J. B. Fazekas, D. C. Fuls, A. R. Gibbs, A. D.
    Grauer, H. Groeller, J. K. Hogan, R. A. Kowalski, S. M. Larson, G. J.
    Leonard, D. Rankin, R. L. Seaman, F. C. Shelly, K. W. Wierzchos.  1.55-m
    reflector + 1K CCD.
Orbital elements:
2024 BX                                                  Earth MOID = 0.0476 AU
Epoch 2023 Sept. 13.0 TT = JDT 2460200.5                Veres                   
M 332.23826              (2000.0)            P               Q                  
n   0.95116855     Peri.  350.47590     +0.98426262     -0.17588053             
a   1.0239947      Node    19.67900     +0.16529241     +0.88206272             
e   0.1451481      Incl.    2.91426     +0.06249406     +0.43707138             
P   1.04           H   25.02          G   0.15           U   7                  
Residuals in seconds of arc
240116 V00  0.2-  0.0     240116 V06  0.3+  0.3-    240117 V06  0.3+  0.0
240116 V00  0.1+  0.0     240117 033  0.2+  0.4+    240117 H01  0.2-  0.0
240116 V00  0.1-  0.0     240117 033  1.0+  0.3+    240117 H01  0.2-  0.0
240116 291  0.1+  0.3+    240117 033  0.4+  0.1+    240117 H01  0.2-  0.1-
240116 V06  0.1+  0.4+    240117 033  1.9+  0.5+    240117 H01  0.2-  0.0
240116 291  0.0   0.4+    240117 V06  0.1+  0.1-    240119 033  0.0   0.0
240116 V06  0.7+  0.1+    240117 V06  0.2+  0.1-    240119 033  0.2+  0.2+
240116 291  0.1+  0.0     240117 V06  0.0   0.2+    240119 033  0.4+  0.3-
Ephemeris:
2024 BX                  a,e,i = 1.02, 0.15, 3                   q = 0.8754
Date    TT    R. A. (2000) Decl.     Delta      r    Elong.  Phase     V
2023 12 20    13 05 49.0 +29 21 24   0.08668 0.9818    86.1    88.9    22.8
...
2024 01 04    12 16 19.7 +36 47 38   0.09036 1.0191   111.0    64.3    22.1
...
2024 01 12    11 41 01.7 +40 13 05   0.09273 1.0388   124.5    51.3    21.8
...
2024 01 18    11 08 49.7 +42 08 27   0.09576 1.0531   134.5    41.8    21.7
2024 01 19    11 03 04.5 +42 22 36   0.09642 1.0554   136.1    40.3    21.6
2024 01 20    10 57 14.7 +42 35 02   0.09714 1.0578   137.7    38.8    21.6
...
2024 01 26    10 21 29.0 +43 11 01   0.1027  1.0715   146.3    30.6    21.5
...
2024 02 03    09 36 29.4 +42 15 15   0.1139  1.0887   153.6    23.7    21.6
...
2024 02 18    08 40 19.2 +37 05 08   0.1481  1.1176   148.9    27.2    22.3
M. P. C. Staff               (C) Copyright 2024 MPC           M.P.E.C. 2024-B46
    
    
More information about the Iaude
mailing list